Regional Weather Roundup
Issued by NWS Bismarck, ND

Home | Current Version | Previous Version | Text Only | Print | Product List | Glossary On
Versions: 1 2 3 4 5 6 7 8 9 10 11 12 13 14 15 16 17 18 19 20 21 22 23 24 25 26 27 28 29 30 31 32 33 34 35 36 37 38 39 40 41 42 43 44 45 46 47 48 49 50
000
ASUS43 KBIS 041010
RWRBIS

NWR BROADCAST TEXT
NATIONAL WEATHER SERVICE BISMARCK ND
400 AM CST SUN DEC 04 2016

NOTE: "FAIR" INDICATES FEW OR NO CLOUDS BELOW 12,000 FEET WITH NO
SIGNIFICANT WEATHER AND/OR OBSTRUCTIONS TO VISIBILITY.


CITY           SKY/WX    TMP DP  RH WIND       PRES   REMARKS
WILLISTON      LGT SNOW  33  30  88 W8        29.78S FOG
MINOT          CLOUDY    29  26  89 W22G28    29.71S WCI  15
MINOT AFB      CLOUDY    27  24  90 NW23      29.70S WCI  12
BISMARCK       PTCLDY    32  29  88 W14       29.76S
DICKINSON      PTCLDY    24  20  84 W16       29.75F WCI  11
GARRISON         N/A     32  29  88 NW12      29.72S
HETTINGER ARPT CLEAR     20  16  84 W8        29.83S WCI  10
JAMESTOWN      CLOUDY    31  28  89 S6        29.74F
BEACH          FAIR      25  21  86 W13       29.84S WCI  13
CARRINGTON     CLOUDY    30  28  93 SW6       29.73F
HAZEN          CLOUDY    34  28  80 W16       29.76F
RUGBY            N/A     28  28 100 W18       29.69S WCI  16
STANLEY        CLOUDY    28  28 100 W14       29.74S WCI  17
TIOGA          LGT SNOW  28  28 100 W14       29.75S WCI  17
WATFORD CITY   LGT SNOW  32  32 100 W12       29.77F
$$

CITY           SKY/WX    TMP DP  RH WIND       PRES   REMARKS
GRAND FORKS    MIX PCPN  34  31  88 S16       29.77F FOG
GRAND FORKS AF LGT SNOW  33  32  96 S15       29.76F FOG
DEVILS LAKE    FLURRIES  31  29  92 SW12      29.70F
FARGO          CLOUDY    35  31  85 S17G28    29.81F
CANDO          LGT SNOW  30  30 100 S7        29.70F
CAVALIER         N/A     32  32 100 S10G16    29.75F FOG
GRAFTON        CLOUDY    34  34 100 SE13      29.78F FOG
GWINNER          N/A     34  34 100 S14       29.79F
LANGDON        CLOUDY    32  32 100 S14       29.69F FOG
ROLLA          LGT SNOW  27  27 100 S5        29.66F
WALHALLA       MIX PCPN  32  32 100 SE13      29.74F
$$

CITY           SKY/WX    TMP DP  RH WIND       PRES   REMARKS
ABERDEEN       CLOUDY    29  25  85 SW9       29.82F
MOBRIDGE       CLEAR     30  24  78 W8        29.79F
BUFFALO          N/A     27  21  78 W12       29.78S WCI  17
RAPID CITY     CLEAR     26  20  77 SW7       29.90F WCI  18
GLASGOW        CLEAR     26  21  81 W8        29.80F WCI  18
SIDNEY         CLEAR     28  24  85 W12       29.81S WCI  18
WOLF POINT     CLEAR     22  20  92 W6        29.82F WCI  14
GLENDIVE       CLEAR     25  20  81 W12       29.82F WCI  14
MILES CITY     CLOUDY    29  20  69 SW9       29.86F
BAKER          CLEAR     23  16  74 W8        29.85R WCI  14
$$

CITY           SKY/WX    TMP DP  RH WIND       PRES   REMARKS
BILLINGS       CLOUDY    31  15  52 SW12      29.90S
GREAT FALLS    CLOUDY    33  21  61 SW18G28   29.81F
REGINA         CLOUDY    27  25  93 W13       29.72F WCI  16
$$




USA.gov is the U.S. government's official web portal to all federal, state and local government web resources and services.